Mount Pleasant, IA

10:28 PM CDT on May 22, 2017 (GMT -0500)
Mount Pleasant Municipal

Weather History for KMPZ - October, 2012

Change the Weather History Date:

Tuesday, October 9, 2012

  Actual Average Record
Temperature  
Mean Temperature 53 °F -  
Max Temperature 66 °F 65 °F 86 °F (1949)
Min Temperature 41 °F 45 °F 24 °F (1964)
Degree Days  
Heating Degree Days 12    
Growing Degree Days 3 (Base 50)    
Moisture  
Dew Point 38 °F    
Average Humidity 66    
Maximum Humidity 91    
Minimum Humidity 37    
Precipitation  
Precipitation 0.00 in - - ()
Sea Level Pressure  
Sea Level Pressure 29.93 in    
Wind  
Wind Speed 12 mph (WSW)    
Max Wind Speed 22 mph    
Max Gust Speed 30 mph    
Visibility 10 miles    
Events Rain    
Averages and records for this station are not official NWS values.
T = Trace of Precipitation, MM = Missing Value Source: NWS Daily Summary

Daily Weather History Graph

Daily Weather History Graph

Search for Another Location

Airport or City:

Trip Planner

Search our weather history database for the weather conditions in past years. The results will help you decide how hot, cold, wet, or windy it might be!

Date:

Astronomy

Oct. 09, 2012 Rise Set
Actual Time 7:11 AM CDT 6:34 PM CDT
Civil Twilight 6:44 AM CDT 7:01 PM CDT
Nautical Twilight 6:12 AM CDT 7:33 PM CDT
Astronomical Twilight 5:40 AM CDT 8:05 PM CDT
Moon 12:45 AM CDT (10/9) 3:04 PM CDT (10/9)
Length of Visible Light 12h 17m
Length of Day
11h 22m
Last Quarter, 36% of the Moon is Illuminated
Oct 9
Last Quarter
Oct 15
New
Oct 21
First Quarter
Oct 29
Full
Nov 6
Last Quarter

Hourly Weather History & Observations

Time (CDT) Temp. Windchill Dew Point Humidity Pressure Visibility Wind Dir Wind Speed Gust Speed Precip Events Conditions
12:15 AM 48.2 °F - 33.8 °F 58% 29.95 in 10.0 mi South 11.5 mph - N/A   Clear
12:35 AM 48.6 °F - 33.8 °F 57% 29.94 in 10.0 mi South 13.8 mph - N/A   Clear
12:55 AM 47.8 °F - 33.8 °F 58% 29.94 in 10.0 mi South 12.7 mph 18.4 mph N/A   Clear
1:15 AM 46.9 °F - 34.2 °F 61% 29.94 in 10.0 mi South 11.5 mph - N/A   Clear
1:55 AM 45.9 °F 40.4 °F 34.2 °F 64% 29.94 in 10.0 mi South 11.5 mph - N/A   Clear
2:15 AM 45.5 °F 39.6 °F 34.3 °F 65% 29.93 in 10.0 mi South 12.7 mph - N/A   Clear
2:55 AM 45.1 °F 39.5 °F 34.5 °F 66% 29.92 in 10.0 mi South 11.5 mph - N/A   Clear
3:15 AM 45.0 °F 38.9 °F 34.7 °F 67% 29.92 in 10.0 mi South 12.7 mph - N/A   Clear
3:35 AM 44.6 °F 38.8 °F 34.7 °F 68% 29.91 in 10.0 mi South 11.5 mph - N/A   Clear
3:55 AM 44.1 °F 38.6 °F 34.7 °F 70% 29.92 in 10.0 mi SSW 10.4 mph - N/A   Clear
4:15 AM 43.7 °F 38.1 °F 34.7 °F 71% 29.92 in 10.0 mi SSW 10.4 mph - N/A   Clear
4:35 AM 43.7 °F 38.1 °F 34.9 °F 71% 29.92 in 10.0 mi South 10.4 mph - N/A   Clear
4:55 AM 43.0 °F 37.2 °F 35.1 °F 74% 29.92 in 10.0 mi South 10.4 mph - N/A   Clear
5:15 AM 42.8 °F 36.6 °F 35.1 °F 74% 29.92 in 10.0 mi South 11.5 mph - N/A   Clear
5:35 AM 42.8 °F 37.0 °F 35.2 °F 75% 29.91 in 10.0 mi South 10.4 mph - N/A   Clear
5:55 AM 43.2 °F 36.6 °F 35.6 °F 75% 29.91 in 10.0 mi South 12.7 mph - N/A   Clear
6:15 AM 43.0 °F 36.8 °F 35.6 °F 75% 29.90 in 10.0 mi South 11.5 mph - N/A   Clear
6:55 AM 42.1 °F 35.2 °F 35.6 °F 78% 29.91 in 10.0 mi South 12.7 mph - N/A   Clear
7:15 AM 42.1 °F 35.7 °F 35.8 °F 78% 29.90 in 10.0 mi South 11.5 mph - N/A   Clear
7:35 AM 42.8 °F 36.6 °F 36.1 °F 77% 29.90 in 10.0 mi South 11.5 mph - N/A   Clear
7:55 AM 43.7 °F 37.3 °F 36.7 °F 76% 29.90 in 10.0 mi South 12.7 mph 17.3 mph N/A   Clear
8:15 AM 45.9 °F 39.7 °F 37.4 °F 72% 29.90 in 10.0 mi South 13.8 mph 19.6 mph N/A   Clear
8:35 AM 46.8 °F - 37.8 °F 71% 29.90 in 10.0 mi South 11.5 mph - N/A   Clear
8:55 AM 48.2 °F - 37.8 °F 67% 29.91 in 10.0 mi SSW 12.7 mph - N/A   Clear
9:15 AM 49.5 °F - 38.1 °F 65% 29.91 in 10.0 mi SSW 16.1 mph 21.9 mph N/A   Clear
9:35 AM 50.2 °F - 38.3 °F 64% 29.91 in 10.0 mi SSW 13.8 mph 19.6 mph N/A   Clear
9:55 AM 51.3 °F - 38.5 °F 62% 29.92 in 10.0 mi SSW 11.5 mph - N/A   Clear
10:15 AM 52.7 °F - 38.7 °F 59% 29.91 in 10.0 mi SSW 13.8 mph 20.7 mph N/A   Clear
10:35 AM 53.8 °F - 38.3 °F 56% 29.91 in 10.0 mi SSW 13.8 mph - N/A   Clear
10:55 AM 55.8 °F - 38.8 °F 53% 29.91 in 10.0 mi SSW 11.5 mph 20.7 mph N/A   Clear
11:15 AM 56.7 °F - 38.3 °F 50% 29.91 in 10.0 mi SSW 17.3 mph 23.0 mph N/A   Clear
11:55 AM 59.2 °F - 39.0 °F 47% 29.89 in 10.0 mi SSW 10.4 mph 21.9 mph N/A   Clear
12:15 PM 60.4 °F - 38.3 °F 44% 29.89 in 10.0 mi SW 15.0 mph 21.9 mph N/A   Clear
12:35 PM 62.4 °F - 38.1 °F 41% 29.88 in 10.0 mi WSW 15.0 mph 19.6 mph N/A   Clear
12:55 PM 63.0 °F - 37.9 °F 40% 29.87 in 10.0 mi WSW 16.1 mph 20.7 mph N/A   Clear
1:15 PM 63.3 °F - 38.1 °F 39% 29.86 in 10.0 mi WSW 15.0 mph 24.2 mph N/A   Clear
1:35 PM 64.8 °F - 38.1 °F 37% 29.85 in 10.0 mi WSW 13.8 mph 20.7 mph N/A   Clear
1:55 PM 65.5 °F - 38.7 °F 37% 29.85 in 10.0 mi SSW 15.0 mph 20.7 mph N/A   Clear
2:15 PM 64.6 °F - 38.3 °F 38% 29.85 in 10.0 mi WSW 18.4 mph 21.9 mph N/A   Clear
2:35 PM 64.4 °F - 39.2 °F 40% 29.85 in 10.0 mi WSW 12.7 mph - N/A   Clear
2:55 PM 63.9 °F - 39.4 °F 41% 29.86 in 10.0 mi WNW 9.2 mph 20.7 mph N/A   Scattered Clouds
3:15 PM 60.6 °F - 38.1 °F 43% 29.87 in 10.0 mi WNW 18.4 mph 24.2 mph N/A   Mostly Cloudy
3:35 PM 59.5 °F - 37.9 °F 45% 29.87 in 10.0 mi WNW 11.5 mph 19.6 mph N/A   Overcast
3:55 PM 59.9 °F - 37.6 °F 44% 29.88 in 10.0 mi West 15.0 mph 20.7 mph N/A   Overcast
4:15 PM 59.9 °F - 38.1 °F 44% 29.88 in 10.0 mi West 11.5 mph - N/A   Overcast
4:35 PM 55.9 °F - 41.4 °F 58% 29.89 in 10.0 mi NW 15.0 mph 21.9 mph N/A   Overcast
4:55 PM 54.0 °F - 41.2 °F 62% 29.89 in 10.0 mi NW 16.1 mph 23.0 mph N/A   Overcast
5:15 PM 52.9 °F - 40.3 °F 62% 29.91 in 10.0 mi NNW 21.9 mph 28.8 mph N/A   Overcast
5:35 PM 51.8 °F - 39.2 °F 62% 29.92 in 10.0 mi NW 17.3 mph 28.8 mph N/A   Overcast
5:55 PM 49.8 °F - 41.4 °F 73% 29.93 in 10.0 mi NNW 19.6 mph 29.9 mph N/A Rain Light Rain
6:15 PM 46.4 °F 40.1 °F 42.8 °F 87% 29.94 in 10.0 mi NW 15.0 mph 23.0 mph N/A Rain Light Rain
6:35 PM 45.9 °F 40.8 °F 42.1 °F 87% 29.96 in 10.0 mi NW 10.4 mph 19.6 mph N/A Rain Rain
6:55 PM 45.0 °F 40.6 °F 41.9 °F 89% 29.95 in 10.0 mi NW 8.1 mph - N/A   Light Drizzle
7:15 PM 44.6 °F 41.4 °F 42.1 °F 91% 29.96 in 10.0 mi WNW 5.8 mph - N/A   Drizzle
7:35 PM 44.6 °F 42.2 °F 41.5 °F 89% 29.96 in 10.0 mi NW 4.6 mph - N/A   Light Drizzle
7:55 PM 44.2 °F 41.8 °F 41.5 °F 90% 29.97 in 10.0 mi WNW 4.6 mph - N/A   Drizzle
8:15 PM 44.2 °F 40.3 °F 40.8 °F 88% 29.97 in 10.0 mi WNW 6.9 mph - N/A   Light Drizzle
8:35 PM 44.1 °F 41.5 °F 41.0 °F 89% 29.98 in 10.0 mi West 4.6 mph - N/A   Overcast
8:55 PM 43.9 °F 40.5 °F 41.2 °F 90% 29.98 in 10.0 mi West 5.8 mph - N/A   Overcast
9:15 PM 44.2 °F 39.7 °F 40.8 °F 88% 29.99 in 10.0 mi West 8.1 mph - N/A   Overcast
9:35 PM 45.1 °F 40.8 °F 39.4 °F 80% 30.00 in 10.0 mi West 8.1 mph - N/A   Mostly Cloudy
9:55 PM 44.8 °F 39.9 °F 38.3 °F 78% 30.00 in 10.0 mi West 9.2 mph - N/A   Scattered Clouds
10:15 PM 43.5 °F 38.9 °F 37.9 °F 81% 30.01 in 10.0 mi West 8.1 mph - N/A   Clear
10:35 PM 42.8 °F 37.5 °F 37.8 °F 82% 30.02 in 10.0 mi West 9.2 mph - N/A   Clear
10:55 PM 42.8 °F 37.0 °F 37.8 °F 82% 30.03 in 10.0 mi WNW 10.4 mph 16.1 mph N/A   Clear
11:15 PM 42.1 °F 37.1 °F 37.4 °F 83% 30.03 in 10.0 mi West 8.1 mph - N/A   Clear
11:35 PM 41.9 °F 37.5 °F 37.0 °F 83% 30.03 in 10.0 mi West 6.9 mph - N/A   Clear
11:55 PM 41.2 °F 35.5 °F 36.5 °F 83% 30.04 in 10.0 mi WNW 9.2 mph - N/A   Clear